Location: Windsor
(43.2292°N, 89.3015°W)
Time: 19:23:01
(UTC+00:00)

RS-44 - Pass Details

Date: 01 July 2022
Orbit: 1175 x 1510 km, 82.5° (Epoch: 16 August)

Event Time Altitude Azimuth Distance (km) Brightness Sun altitude
Rises 04:33:55 0° 246° (WSW) 4,380 ? -20.7°
Reaches altitude 10° 04:38:02 10° 265° (W) 3,475 ? -21.0°
Maximum altitude 04:43:04 17° 303° (WNW) 3,041 ? -21.3°
Drops below altitude 10° 04:48:17 10° 341° (NNW) 3,615 ? -21.6°
Sets 04:52:45 0° 0° (N) 4,636 ? -21.8°
